Bautista González

Scout - Huracán
4 Apr 2027
Sonntag
Verarbeitung

Persönlichkeit

Anpassungsfähigkeit (5) Ehrgeiz (1) Kontroverse (12) Loyalität (16) Druck (19) Professionalität (5) Fairness (11) Temperament (7)

Profil

Trainerstil Demokratisch
Lizenz Nationale B
Entschlossenheit 13
Menschenführung 12
Motivation 7
Disziplin 13
Arbeitszufriedenheit
50%
Ermüdung
0%
Rolle Scout
Gehalt 96.5K p/W
Vertrag 14.03.2028

Leistung

Verhalten Normal
Trainingseffektivität
24%
Spielerentwicklung
25%
Verletzungsprävention
55%
Taktische Umsetzung
30%

Letzte Ereignisse

Spieler begutachtet jetzt
Spieler begutachtet 7T her
Spieler begutachtet 7T her
Nahm an einer Scouting-Besprechung teil 7T her
Spieler begutachtet 7T her
Spieler begutachtet 7T her
Spieler begutachtet 7T her
Spieler begutachtet 14T her

Aktuell beobachtet

111
Spieler Verein Status Fähigkeit Vertrauen Beobachtet Zuletzt beobachtet Letzte Stimme
Mateo Retegui Al-Qadisiyah Aktiv 148 / 166 40% 1 03.04.2027 -
Kaio Jorge Cruzeiro Aktiv 143 / 147 40% 1 03.04.2027 -
Luciano Gondou CSKA Moscow Aktiv 130 / 119 40% 4 29.03.2027 -
Raúl García Osasuna Aktiv 129 / 129 40% 1 29.03.2027 -
Daniel Kyerewaa Reading Aktiv 100 / 115 40% 2 28.03.2027 -
Rafita Málaga Aktiv 130 / 124 40% 1 28.03.2027 -
Crysencio Summerville Al-Hilal Aktiv 150 / 134 40% 1 27.03.2027 -
Stanley Mills Oxford United Aktiv 120 / 117 40% 1 27.03.2027 -
Adnan Courtois KV Oostende Aktiv 106 / 124 40% 3 26.03.2027 -
Joel Asoro Apollon Aktiv 123 / 128 40% 1 26.03.2027 -
Mohammad Alsalkhadi Damac Aktiv 122 / 117 40% 2 22.03.2027 -
Luiz Henrique Zenit Aktiv 139 / 153 40% 2 22.03.2027 -
Ali Youssef Apollon Aktiv 119 / 127 40% 2 22.03.2027 -
Gonzalo Plata Dinamo Moscow Aktiv 153 / 126 40% 1 16.03.2027 -
Esequiel Barco Spartak Moscow Aktiv 126 / 139 40% 2 13.03.2027 -
Chiquinho Alverca Aktiv 146 / 120 40% 1 13.03.2027 -
Tamerlan Musaev CSKA Moscow Aktiv 135 / 118 40% 4 07.03.2027 -
Luke Baartman Chippa United Aktiv 112 / 119 40% 2 06.03.2027 -
Elias Manoel Tijuana Aktiv 114 / 106 40% 1 06.03.2027 -
Pavel Meleshin Sochi Aktiv 107 / 116 40% 2 05.03.2027 -
Moses Cobnan Krasnodar Aktiv 103 / 126 40% 1 05.03.2027 -
Percy Erasmus SuperSport United Aktiv 145 / 118 40% 5 04.03.2027 -
Morgan Whittaker Middlesbrough Aktiv 147 / 134 40% 1 04.03.2027 -
Mduduzi Shabalala Kaizer Chiefs Aktiv 120 / 124 40% 1 02.03.2027 -
Emile Smith Rowe Fulham Aktiv 168 / 154 40% 1 01.03.2027 -
Jaden Philogene Ipswich Town Aktiv 152 / 129 40% 1 01.03.2027 -
Alexey Batrakov Galatasaray Aktiv 140 / 152 40% 1 28.02.2027 -
Oswin Appollis Orlando Pirates Aktiv 133 / 112 40% 1 28.02.2027 -
Bart van Rooij Twente Aktiv 138 / 126 40% 1 28.02.2027 -
Mfundo Vilakazi Kaizer Chiefs Aktiv 123 / 118 40% 1 26.02.2027 -
Noah Sadiki Sunderland Aktiv 129 / 145 40% 1 26.02.2027 -
Alexandr Rudenko Lokomotiv Moscow Aktiv 111 / 113 40% 1 25.02.2027 -
Brayan León Mamelodi Sundowns Aktiv 131 / 110 40% 2 24.02.2027 -
Uriël Van Aalst Willem II Aktiv 96 / 113 40% 2 23.02.2027 -
Sinclair Armstrong Bristol City Aktiv 100 / 115 40% 1 23.02.2027 -
Evidence Makgopa Orlando Pirates Aktiv 131 / 117 40% 2 21.02.2027 -
Ander Barrenetxea Real Sociedad Aktiv 134 / 147 40% 2 21.02.2027 -
Fernand Gouré Westerlo Aktiv 116 / 104 40% 1 21.02.2027 -
Dmitry Tsypchenko Torpedo Moscow Aktiv 92 / 95 40% 2 18.02.2027 -
Jerome Karelse Golden Arrows Aktiv 89 / 99 40% 3 17.02.2027 -
Roger Hinojo Espanyol Aktiv 95 / 127 40% 1 12.02.2027 -
Itumeleng Tau Ajax Cape Town Aktiv 124 / 120 40% 5 07.02.2027 -
Lebogang Erasmus Platinum Stars Aktiv 111 / 106 40% 1 07.02.2027 -
Stav Toriel Hapoel Tel Aviv Aktiv 137 / 131 40% 1 06.02.2027 -
José Martínes CSKA 1948 Aktiv 123 / 103 40% 1 05.02.2027 -
Nabil Alioui Damac Aktiv 111 / 112 40% 4 03.02.2027 -
Miro Dinamo Makhachkala Aktiv 129 / 121 40% 1 02.02.2027 -
Cédric Don Maccabi Haifa Aktiv 127 / 131 40% 1 02.02.2027 -
Jhon Jhon Zenit Aktiv 150 / 131 40% 1 01.02.2027 -
Gorka Gorosabel Real Sociedad Aktiv 126 / 124 40% 1 29.01.2027 -
Bradley Mothiba SuperSport United Aktiv 92 / 92 40% 1 29.01.2027 -
Kamogelo Sebelebele Orlando Pirates Aktiv 114 / 117 40% 1 27.01.2027 -
Brian Figueroa Morelia Aktiv 120 / 109 40% 1 27.01.2027 -
Alex Luna Instituto Aktiv 143 / 123 40% 1 26.01.2027 -
Ibrahim Cissoko Zwolle Aktiv 108 / 122 40% 1 26.01.2027 -
Helinho Toluca Aktiv 145 / 132 40% 2 23.01.2027 -
Teboho Tau Ajax Cape Town Aktiv 102 / 104 40% 1 19.01.2027 -
José Barreto Fehervar Aktiv 108 / 106 40% 2 12.01.2027 -
Facundo Torres Shakhtar Aktiv 139 / 127 40% 1 10.01.2027 -
Alejo Dramisino Honved Aktiv 132 / 109 40% 3 07.01.2027 -
Milson Al Jazira Aktiv 123 / 128 40% 1 07.01.2027 -
Ronaldo Rostov Aktiv 134 / 134 40% 1 06.01.2027 -
Keagan Hlatshwayo SuperSport United Aktiv 117 / 109 40% 1 04.01.2027 -
Ignacio Russo Tigre Aktiv 120 / 133 40% 1 29.11.2026 -
Evidence Billiat Ajax Cape Town Aktiv 113 / 118 40% 1 28.11.2026 -
Manuel Roffo Cerro Porteno Aktiv 125 / 122 40% 2 26.11.2026 -
Nicolás Sumavil Platense Aktiv 113 / 125 40% 1 26.11.2026 -
Felipe San Juan Gimnasia y Esgrima Aktiv 122 / 114 40% 2 24.11.2026 -
Marcos Cuenca Zaragoza Aktiv 90 / 120 40% 1 24.11.2026 -
Roman Celentano FC Cincinnati Aktiv 133 / 116 40% 2 21.11.2026 -
Felipe Zenobio Tigre Aktiv 134 / 124 40% 1 21.11.2026 -
Franco Déboli Slaven Belupo Aktiv 95 / 100 40% 1 19.11.2026 -
Alexander Díaz Deportivo Riestra Aktiv 116 / 119 40% 1 19.11.2026 -
Afimico Pululu Al-Hazem Aktiv 128 / 130 40% 1 18.11.2026 -
Oleksandr Saputin Zorya Aktiv 118 / 125 40% 1 16.11.2026 -
Svetoslav Vutsov Levski Aktiv 136 / 119 40% 1 16.11.2026 -
Cristopher Varela Deportivo La Guaira Aktiv 107 / 119 40% 2 15.11.2026 -
Lucas Lund Viborg Aktiv 132 / 118 40% 1 15.11.2026 -
Luka Gavran Toronto FC Aktiv 123 / 115 40% 1 14.11.2026 -
Razvan Puscas Astra Aktiv 128 / 114 40% 1 09.11.2026 -
Favio Cabral Mitre Aktiv 108 / 123 40% 2 07.11.2026 -
Jerónimo Porto Lapegüe Slask Aktiv 106 / 110 40% 1 07.11.2026 -
Luis Ingolotti Atlético Tucumán Aktiv 120 / 116 40% 2 05.11.2026 -
Karim Konaté Red Bull Salzburg Aktiv 141 / 150 40% 1 01.11.2026 -
Job Ochieng Real Sociedad Aktiv 116 / 113 40% 2 30.10.2026 -
Taisei Miyashiro Seattle Sounders Aktiv 127 / 119 40% 2 17.10.2026 -
Patrick Schulte Columbus Crew Aktiv 122 / 128 40% 1 16.10.2026 -
Ştefan Târnovanu FCSB Aktiv 101 / 117 40% 1 16.10.2026 -
Sławomir Abramowicz Jagiellonia Aktiv 126 / 120 40% 1 14.10.2026 -
Leonardo Campana New England Revolution Aktiv 132 / 122 40% 1 05.10.2026 -
Max Fenger IFK Goteborg Aktiv 111 / 115 40% 1 04.10.2026 -
Clemente Montes Universidad Catolica Aktiv 110 / 118 40% 1 02.10.2026 -
Ashkan Shojaei Siah Jamegan Aktiv 125 / 126 40% 1 01.10.2026 -
Aaron Spetale AGF Aktiv 125 / 104 40% 1 01.10.2026 -
Victor Aznar Cádiz Aktiv 128 / 119 40% 1 01.10.2026 -
Diego Romero Universitario Aktiv 125 / 120 40% 1 01.10.2026 -
Nahuel Ulariaga Al Ahli Aktiv 110 / 111 40% 1 28.09.2026 -
Agustín Lastra Estudiantes Aktiv 94 / 110 40% 1 26.09.2026 -
Lucas Carrizo Plaza Colonia Aktiv 114 / 111 40% 1 22.09.2026 -
Luca Orellano Monterrey Aktiv 142 / 131 40% 1 22.09.2026 -
Fernando Tapia Club America Aktiv 136 / 125 40% 1 21.09.2026 -
Héctor Holguín Gamba Osaka Aktiv 91 / 99 40% 1 21.09.2026 -
Esteban Obregón Montevideo City Torque Aktiv 113 / 112 40% 1 21.09.2026 -
Tomás Ahumada Audax Italiano Aktiv 95 / 109 40% 2 18.09.2026 -
Fabrizio Correa Juventud Aktiv 129 / 112 40% 1 18.09.2026 -
Facundo Batista Penarol Aktiv 116 / 120 40% 1 18.09.2026 -
Ruyery Blanco Alianza Petrolera Aktiv 100 / 105 40% 1 18.09.2026 -
Xavier Biscayzacú Defensor Sporting Aktiv 116 / 133 40% 1 13.09.2026 -
Santino Barbi Talleres Aktiv 102 / 114 40% 1 12.09.2026 -
Sebastian Hernandez Cortulua Aktiv 121 / 120 40% 1 11.09.2026 -
Mandla Jali SuperSport United Aktiv 111 / 112 40% 1 07.09.2026 -